Lapse_Rate
7.1 6.9 6.8 6.7 6.9 6.9 7.2 6.7 6.4 6.6 6.7 6.5 6.8 6.8 6.9 6.8 6.7 6.6 6.5 6.6 6.6 6.6 6.4 6.3 6.1 5.9 6.0 6.3 6.3 6.3 6.1 6.0 6.0 6.0 5.9 5.9 5.8 5.7 5.5 5.6 5.6 5.5 5.7
6.8 6.7 6.6 6.6 6.2 6.6 6.7 6.8 6.6 6.4 6.7 6.9 6.8 7.0 7.0 7.0 6.9 6.8 6.8 6.7 6.8 6.6 6.5 6.5 6.2 6.0 5.9 6.1 6.2 6.2 6.1 6.0 5.9 5.9 5.9 5.9 6.0 5.7 5.6 5.4 5.5 5.5 5.6
6.3 6.2 6.1 6.0 6.3 6.4 6.3 6.4 6.7 6.3 6.6 6.8 7.3 7.2 7.4 7.2 7.0 6.8 6.7 6.7 6.9 6.7 6.5 6.5 6.3 6.2 6.0 5.9 6.0 6.1 6.1 6.0 5.9 5.8 5.7 5.8 6.0 5.9 5.6 5.5 5.5 5.4 5.4
6.1 6.1 6.0 5.5 5.7 5.5 5.7 6.1 6.0 6.0 6.1 6.2 6.6 6.8 7.0 7.1 7.3 6.9 6.9 6.5 6.7 6.8 6.7 6.7 6.5 6.1 6.1 6.0 5.9 5.9 6.0 6.0 5.9 5.7 5.7 5.7 5.7 5.7 5.5 5.6 5.6 5.5 5.4
5.7 5.8 5.8 5.9 5.7 5.7 5.5 5.6 5.5 5.3 5.3 5.8 6.2 6.6 6.7 6.8 7.0 7.0 7.2 6.6 6.4 6.6 6.8 6.6 6.7 6.2 6.1 6.0 6.0 5.9 6.0 6.0 5.9 5.9 5.6 5.7 5.6 5.6 5.5 5.4 5.6 5.5 5.4
5.8 5.9 6.0 6.0 6.1 5.9 6.3 6.5 6.0 5.1 5.4 5.0 5.9 6.3 6.5 6.6 6.7 6.8 7.1 6.9 6.5 6.7 6.5 6.7 6.8 6.8 6.4 6.1 6.1 6.1 6.0 6.1 6.0 5.9 5.7 5.6 5.6 5.6 5.7 5.7 5.6 5.4 5.4
6.1 5.9 5.8 6.0 5.9 5.8 5.7 6.1 6.1 5.6 5.4 5.8 5.7 6.1 6.1 6.4 6.7 6.5 6.5 6.5 5.9 6.5 6.5 6.7 6.7 6.6 6.9 6.6 6.4 6.4 6.4 6.4 6.1 6.0 5.9 5.7 5.6 5.7 5.7 5.7 5.5 5.3 5.4
6.8 6.4 6.3 6.3 6.2 6.1 5.7 5.5 5.7 5.7 5.8 5.8 5.7 6.0 5.8 6.0 6.0 5.8 6.4 6.1 5.8 6.5 6.2 6.3 7.0 6.9 6.4 6.8 6.6 6.6 6.5 6.3 6.3 6.2 6.2 6.1 5.7 5.9 5.8 5.8 5.8 5.6 5.6
7.2 7.1 6.9 6.7 7.0 6.9 6.5 5.9 5.8 5.7 5.7 6.1 6.1 5.7 5.5 5.8 5.6 5.0 5.4 5.8 5.5 5.1 5.5 6.0 6.7 6.7 6.7 6.7 6.5 6.5 6.7 6.6 6.5 6.5 6.3 6.3 6.0 5.6 5.8 5.9 5.7 5.7 5.8
7.5 7.4 7.5 7.4 7.3 7.1 7.1 6.8 6.4 6.4 6.0 5.9 5.9 6.3 6.4 5.7 5.4 5.0 5.4 5.7 5.4 5.0 5.1 6.0 6.2 6.5 6.4 6.5 6.6 6.5 6.6 6.7 6.7 6.6 6.5 6.3 6.3 6.2 5.8 5.8 5.9 5.6 5.6
7.9 7.9 7.8 7.6 7.4 7.3 7.2 7.1 6.8 6.5 6.6 6.6 6.1 6.0 6.2 5.3 5.3 5.0 5.3 5.7 5.2 5.4 5.4 5.2 5.3 6.3 6.4 6.1 6.4 6.7 6.5 6.4 6.6 6.7 6.6 6.5 6.4 6.3 6.3 5.9 5.8 5.7 5.6
8.0 8.1 8.2 8.2 7.8 7.7 7.7 7.6 7.3 6.7 6.6 6.5 6.6 6.1 6.0 5.9 5.4 5.4 5.7 6.0 5.7 5.8 5.4 5.8 5.5 6.0 6.3 6.1 6.3 6.7 6.9 6.4 6.2 6.4 6.6 6.6 6.6 6.6 6.6 6.2 5.9 5.8 5.5
7.7 7.9 8.2 8.2 8.2 7.9 7.9 7.7 7.6 7.4 6.9 6.6 6.6 6.4 6.3 6.1 5.8 6.0 5.8 5.8 5.8 6.1 5.2 6.1 6.2 6.0 6.0 6.0 6.4 6.4 6.7 6.6 6.3 6.3 6.4 6.5 6.6 6.6 6.7 6.5 6.1 5.9 5.8
7.6 7.8 8.0 8.0 8.0 8.1 8.0 8.0 7.7 7.6 7.3 6.9 6.7 6.4 6.1 6.0 6.0 5.8 5.9 5.9 5.8 5.8 5.7 5.9 6.2 6.2 6.1 5.9 6.3 6.3 6.3 6.7 6.4 6.2 6.3 6.3 6.5 6.7 6.6 6.6 6.2 6.0 6.1
7.0 7.3 7.5 7.5 7.7 7.7 7.6 7.6 7.6 7.7 7.7 7.4 7.0 6.8 6.5 6.4 6.2 6.1 6.0 6.0 5.9 5.9 6.0 6.4 6.2 6.6 6.3 5.9 6.0 6.2 6.4 6.3 6.3 6.3 6.1 6.2 6.4 6.7 6.7 6.6 6.3 6.0 6.4
6.9 7.1 7.5 7.4 7.4 7.6 7.3 7.2 7.4 7.2 7.5 7.5 7.1 6.8 6.8 6.6 6.5 6.2 6.0 6.1 6.0 6.1 6.2 6.5 6.5 6.5 6.4 5.8 6.0 6.3 6.2 6.3 6.2 6.1 6.1 6.2 6.4 6.5 6.7 6.8 6.5 6.0 6.3
6.5 6.5 6.5 6.6 6.7 6.9 6.9 7.0 7.1 7.1 7.4 7.4 7.2 6.8 6.7 6.6 6.7 6.7 6.6 6.2 6.0 6.1 6.3 6.7 6.6 6.7 6.5 6.2 6.2 6.1 5.9 6.0 6.1 6.1 6.2 6.4 6.4 6.4 6.5 6.7 6.7 6.3 6.0
5.8 6.0 6.0 6.0 6.3 6.6 6.6 6.6 6.6 6.5 6.6 7.1 7.5 7.2 6.9 6.5 6.8 6.9 6.8 6.7 6.2 6.3 6.3 6.7 6.8 6.8 6.7 6.7 6.7 6.4 6.2 6.0 6.1 6.0 6.3 6.3 6.4 6.4 6.4 6.7 6.7 6.5 6.1
5.2 5.2 5.2 5.3 5.6 5.8 5.9 5.9 6.2 6.3 6.3 6.4 6.8 7.2 6.7 6.3 6.4 6.7 6.9 6.9 6.6 6.4 6.3 6.3 6.8 6.7 6.9 6.9 6.5 6.7 6.6 6.6 6.4 6.2 6.2 6.3 6.4 6.4 6.4 6.5 6.7 6.3 6.1
4.6 4.6 4.4 4.5 4.9 5.0 5.2 4.9 4.9 5.6 5.9 6.1 6.3 6.6 6.6 6.4 6.3 6.3 6.5 6.6 6.5 6.4 6.2 6.2 6.1 6.4 6.8 7.0 6.7 6.6 6.5 6.7 6.8 6.7 6.4 6.6 6.7 6.6 6.6 6.5 6.7 6.6 6.5
4.3 4.4 4.3 4.1 4.0 3.8 4.2 4.6 5.1 5.6 5.6 5.6 5.8 6.2 6.3 6.3 6.3 6.5 6.5 6.4 6.2 6.3 6.1 5.9 6.0 6.1 6.3 6.8 6.7 6.6 6.5 6.5 6.7 6.7 6.5 6.5 6.5 6.5 6.6 6.5 6.4 6.5 6.6
4.5 4.4 4.2 4.0 3.9 3.8 4.1 4.4 4.7 5.3 5.7 5.5 5.3 5.4 5.5 5.8 6.1 5.9 5.8 6.0 5.9 5.7 5.7 5.9 6.0 6.0 6.0 6.3 6.5 6.4 6.5 6.4 6.3 6.4 6.5 6.6 6.5 6.4 6.4 6.3 6.3 6.6 6.6
5.0 5.1 4.6 4.4 4.3 4.2 3.8 3.8 3.8 4.2 4.8 5.5 5.8 5.2 4.9 4.9 5.3 5.5 5.5 5.6 5.5 5.3 5.3 5.6 5.6 5.7 5.9 5.7 6.3 6.3 6.5 6.3 6.4 6.4 6.5 6.4 6.5 6.5 6.1 6.1 6.2 6.1 6.1
5.2 5.3 5.3 5.4 5.2 5.1 4.6 4.2 4.2 4.0 4.1 4.4 4.9 5.1 5.4 5.4 5.4 5.4 5.3 5.1 5.2 5.6 5.7 5.6 5.5 5.5 5.3 5.6 6.3 6.5 6.9 6.8 6.4 6.5 6.5 6.1 6.2 6.0 5.4 6.0 6.2 5.9 5.7
5.2 5.3 5.2 5.3 5.7 5.6 5.7 5.2 4.9 4.5 4.2 4.1 4.2 4.4 4.7 5.0 5.2 5.1 5.2 5.2 5.6 5.5 5.5 5.6 5.6 5.6 5.5 6.1 6.6 6.7 6.9 7.2 6.7 6.5 6.7 6.4 6.1 6.0 5.5 5.6 6.1 6.0 5.8
5.9 5.9 5.9 5.7 5.5 5.1 5.2 5.2 5.3 4.8 4.6 4.6 4.5 4.4 4.4 4.5 4.6 4.8 5.0 5.3 5.6 5.8 5.6 5.9 6.0 5.3 6.4 5.9 6.1 6.4 6.7 7.0 6.8 6.3 6.5 6.0 6.2 5.8 5.3 5.8 5.3 6.0 5.8
Wind_Speed
7 6 6 8 9 9 12 10 10 9 10 13 14 13 12 13 12 10 10 12 16 14 15 19 21 19 18 20 22 22 22 24 25 29 28 24 24 27 29 26 26 26 24
6 6 5 5 5 10 9 13 9 9 10 11 12 13 13 14 13 13 11 12 15 18 15 19 22 18 19 21 23 23 23 24 26 28 28 28 28 29 28 30 26 27 26
7 7 6 6 7 9 9 10 8 8 9 10 14 12 11 15 14 15 13 12 12 14 19 17 18 16 15 18 22 24 23 25 26 28 27 27 27 28 33 32 28 28 29
10 4 4 5 6 7 6 4 5 6 6 7 9 9 11 8 12 15 15 13 13 12 13 20 20 19 16 18 22 23 23 25 26 26 28 27 28 30 26 31 33 30 28
14 9 6 8 12 6 4 7 6 8 8 9 9 7 7 9 11 10 12 14 15 15 12 13 20 23 21 20 22 23 23 25 26 27 28 28 27 28 32 30 30 29 29
13 10 6 7 7 3 6 8 13 13 13 10 8 8 8 9 9 8 11 10 14 15 16 14 13 15 22 22 22 23 24 24 26 27 27 27 26 27 27 28 30 31 33
17 13 8 9 9 6 5 8 9 10 9 6 6 8 6 8 12 7 7 8 9 11 12 14 11 12 14 21 23 22 24 26 25 26 27 28 26 26 25 28 30 33 33
17 13 10 8 8 7 8 7 7 9 11 12 11 9 8 7 6 6 6 5 4 4 8 13 14 13 14 15 18 22 24 26 25 27 27 27 26 23 26 28 32 36 35
14 14 13 8 8 7 6 9 9 9 8 9 14 8 3 9 4 3 6 5 3 5 8 10 14 16 16 16 17 20 26 28 26 26 27 25 26 25 27 29 31 35 38
15 13 13 11 10 7 9 8 8 10 9 8 7 10 13 2 1 4 3 3 6 10 14 8 10 13 19 19 20 22 21 29 29 26 25 26 24 27 25 26 30 35 38
12 13 12 11 10 9 9 11 11 10 9 9 8 9 10 10 8 9 9 5 8 13 14 13 12 10 18 19 19 21 28 27 29 28 24 22 22 22 23 25 28 33 35
9 10 13 11 10 9 10 10 12 13 10 11 9 9 8 8 10 11 12 12 14 11 14 14 15 13 15 17 22 25 28 30 29 29 27 25 24 24 24 25 28 33 39
10 11 13 12 10 11 12 10 12 13 12 11 12 10 9 7 8 10 13 12 12 12 8 11 14 13 12 18 19 26 25 29 30 29 27 25 24 24 25 26 29 32 39
11 14 13 14 14 13 11 10 9 10 12 12 15 12 11 11 8 10 11 12 12 13 11 12 10 12 13 17 19 25 21 29 29 30 29 26 25 23 26 25 26 31 41
11 14 14 14 14 13 13 12 9 11 12 12 12 12 11 11 11 10 12 12 13 13 13 13 12 15 13 15 18 21 19 23 29 28 30 27 26 25 25 25 24 22 29
13 13 14 14 13 13 13 13 11 11 13 10 10 13 13 11 13 12 11 12 13 14 15 11 12 13 13 11 16 21 20 22 24 28 29 28 27 25 23 22 19 13 16
14 14 14 14 14 14 14 13 14 14 14 13 13 14 15 15 12 12 11 13 13 14 15 13 10 10 15 15 13 14 18 12 15 25 27 26 26 25 24 22 25 21 23
14 15 14 13 14 14 14 14 15 15 15 16 15 15 15 11 16 15 12 16 16 14 14 17 14 10 13 14 14 13 11 10 9 18 25 26 26 25 24 24 26 27 27
14 15 14 15 16 14 14 14 14 16 16 16 16 16 15 16 16 12 13 15 13 13 14 12 12 12 11 9 12 11 10 10 7 12 20 23 23 23 23 25 25 27 28
15 15 15 15 15 14 15 15 14 13 13 13 15 15 14 15 14 13 13 14 16 14 14 13 12 10 9 7 9 8 6 6 5 2 4 10 16 18 20 20 20 22 24
15 17 16 17 16 14 13 17 15 15 15 14 14 9 6 10 12 13 12 13 14 15 14 14 12 11 9 4 10 4 8 5 1 2 2 2 4 5 5 12 11 15 17
15 15 16 17 18 14 29 28 22 14 16 17 14 12 12 16 9 17 16 16 7 6 15 15 11 17 15 11 8 9 8 4 4 4 4 4 3 3 3 5 8 9 10
14 15 15 15 16 19 33 30 26 13 14 16 18 15 15 14 15 9 13 14 19 19 14 5 3 8 6 4 8 13 12 10 8 5 5 4 1 3 3 5 4 5 7
13 13 14 16 16 18 34 31 26 14 13 16 19 20 19 21 22 17 10 12 13 14 15 10 10 6 7 7 5 4 11 6 4 2 3 4 2 2 3 3 6 3 0
12 12 12 16 18 17 34 33 22 13 14 17 17 23 22 22 34 29 15 15 14 18 15 23 19 19 20 23 18 3 4 5 1 1 2 2 3 3 3 1 1 8 10
11 9 13 15 23 17 31 32 23 11 15 13 16 20 35 28 35 33 17 15 19 14 14 12 13 17 18 18 24 13 6 4 2 2 3 2 2 3 3 1 2 3 2
Wind_Direction
210 211 217 217 211 217 228 221 223 217 213 227 231 236 240 237 240 246 257 249 247 242 238 240 237 229 220 216 216 213 212 209 209 207 197 197 199 198 192 180 177 175 175
211 217 205 212 226 200 221 232 216 225 226 224 235 233 238 240 240 235 240 257 250 250 243 238 237 223 220 220 215 212 212 209 208 210 202 202 208 201 193 184 181 177 176
229 221 204 210 218 234 220 244 258 228 234 234 235 235 234 241 241 238 234 240 254 248 249 239 237 230 230 230 220 212 209 210 210 211 209 204 208 213 209 190 185 183 182
9 288 225 220 204 174 164 200 243 234 230 229 237 240 245 232 242 246 241 230 235 245 243 238 236 240 247 245 228 217 209 207 209 211 207 209 211 216 211 203 190 190 189
1 342 305 275 274 243 186 145 260 283 240 222 229 221 235 244 245 241 242 237 235 237 235 235 238 244 250 248 242 223 215 212 210 212 212 212 213 212 216 207 193 193 192
359 348 332 337 336 305 225 215 224 218 250 229 223 221 219 236 234 228 234 229 230 229 231 225 225 235 244 246 245 234 226 221 216 216 215 213 211 214 219 206 197 205 196
353 349 349 343 340 323 291 255 248 244 240 235 252 247 230 222 238 215 235 224 235 230 244 241 222 225 234 239 241 241 230 227 220 219 216 217 220 212 205 198 202 207 199
349 347 343 336 336 320 302 274 260 247 248 240 238 242 249 220 230 192 221 207 239 264 259 256 248 237 236 233 239 229 232 229 223 220 217 217 215 204 203 205 207 204 202
342 341 336 331 331 323 304 302 286 268 255 241 224 230 203 235 166 163 174 147 123 254 262 251 247 241 233 235 228 234 230 227 225 220 222 216 210 213 213 211 214 211 203
340 335 329 330 327 320 306 304 301 295 290 271 234 223 239 176 226 195 208 141 205 253 249 230 247 251 244 235 226 226 224 228 228 224 220 222 212 212 216 220 221 216 213
330 329 330 328 322 314 311 304 297 288 283 275 280 239 221 231 221 228 238 202 218 234 238 245 240 238 243 240 230 224 218 220 224 224 222 218 216 216 218 220 217 219 216
322 323 323 319 313 302 303 303 297 288 283 276 282 291 259 222 213 225 231 233 224 228 227 233 237 235 230 230 232 225 210 208 213 220 221 224 225 225 224 224 225 218 212
326 320 322 322 313 306 300 290 287 282 277 270 268 267 270 281 239 231 229 233 227 225 220 231 237 236 235 228 227 226 221 211 207 210 216 222 225 226 226 228 232 232 231
320 322 325 319 311 307 297 292 281 277 271 267 265 259 266 264 265 243 223 223 230 235 225 220 212 228 228 228 222 219 225 216 214 208 211 214 217 223 225 225 232 241 239
325 327 323 317 314 310 303 292 281 275 272 269 259 258 258 264 262 269 234 222 224 230 232 225 225 214 216 221 217 214 216 221 212 208 210 211 213 220 226 226 238 250 254
336 333 326 322 320 313 305 296 286 277 271 265 262 252 252 253 255 245 257 227 231 232 249 230 223 222 209 214 210 211 218 217 206 206 208 209 208 215 221 223 229 210 185
349 344 338 332 323 322 316 307 298 288 277 274 263 258 250 247 249 255 243 239 227 231 237 245 249 222 221 216 214 213 220 213 219 204 205 210 209 210 214 210 219 197 176
355 353 347 338 336 327 326 318 305 295 284 276 272 270 257 248 247 243 248 247 234 231 234 236 242 226 225 214 212 210 213 209 214 204 203 203 207 206 204 203 203 204 190
4 2 356 353 349 344 336 328 316 301 287 276 264 258 261 252 248 245 244 238 253 238 234 241 238 236 226 214 212 211 209 205 210 208 197 201 203 202 202 203 204 205 203
11 6 2 357 355 351 354 349 341 337 332 305 279 249 256 257 269 246 237 249 242 253 236 239 229 229 217 210 210 202 200 199 193 150 168 198 192 197 204 206 206 214 213
13 9 5 3 4 8 6 6 1 356 358 355 20 11 348 348 353 270 255 252 250 246 249 236 246 217 209 176 198 183 211 197 170 160 137 155 147 143 153 166 175 194 209
15 9 7 5 6 14 14 13 14 9 10 18 17 21 22 15 7 34 54 52 45 273 256 243 236 235 223 204 194 198 191 173 214 193 157 179 158 147 141 163 166 175 193
15 17 12 8 10 18 16 14 12 16 14 22 24 23 28 24 21 28 41 42 45 36 40 310 344 294 271 3 228 207 197 197 218 163 174 177 131 125 119 121 157 173 196
21 20 17 15 15 17 18 16 13 13 17 23 26 27 30 31 28 25 24 41 40 40 33 48 52 50 33 357 319 310 233 179 66 355 160 167 144 152 146 103 82 89 153
23 25 23 18 21 19 22 19 15 14 19 25 24 29 31 34 33 30 33 34 36 37 14 36 47 35 33 28 22 333 359 176 135 217 16 118 163 126 132 161 71 86 83
26 24 29 25 22 21 19 23 23 18 22 24 25 29 31 38 38 37 35 31 38 24 24 28 32 34 24 24 30 25 2 13 346 174 7 120 145 131 161 179 207 88 5